Location: La Estación
(39.9833°N, 3.9500°W)
Time: 16:02:59
(UTC+00:00)

ARIANE 5 R/B - Pass Details

Date: 14 June 2025
Orbit: 615 x 647 km, 98.0° (Epoch: 18 July)

Event Time Altitude Azimuth Distance (km) Brightness Sun altitude
Exits shadow 22:20:48 20° 80° (E) 1,500 4.3 -21.2°
Maximum altitude 22:21:32 20° 66° (ENE) 1,468 4.4 -21.3°
Drops below altitude 10° 22:24:47 10° 19° (NNE) 2,044 5.8 -21.6°
Sets 22:27:28 0° 3° (N) 2,962 7.0 -21.8°
